FW5225 Weather Reports


Display with metric or nautical units.
time (UTC)temp
F
wind
direction
speed
MPH
gust
MPH
rain 1hr
in
rain 24hr
in
rain mn
in
humidity
%
barometer
mb
20260508072550 82 200 0.0 2.0 0.00 0.00 0.00 17 1007.8
20260508072050 82 218 0.0 4.0 0.00 0.00 0.00 17 1007.8
20260508071602 83 202 0.0 4.0 0.00 0.00 0.00 17 1007.8
20260508071049 83 288 0.0 8.0 0.00 0.00 0.00 17 1007.8
20260508070548 83 186 2.0 9.0 0.00 0.00 0.00 17 1007.8
20260508070057 83 227 5.0 9.0 0.00 0.00 0.00 17 1007.8
20260508065548 83 169 1.0 6.0 0.00 0.00 0.00 18 1007.7
20260508065045 83 234 1.0 6.0 0.00 0.00 0.00 17 1007.7
20260508064545 83 281 2.0 6.0 0.00 0.00 0.00 17 1007.7
20260508064047 83 221 1.0 6.0 0.00 0.00 0.00 17 1007.7
20260508063544 83 273 1.0 6.0 0.00 0.00 0.00 17 1007.8
20260508063044 83 242 1.0 6.0 0.00 0.00 0.00 18 1007.8
20260508062544 84 266 1.0 6.0 0.00 0.00 0.00 17 1007.8
20260508062044 84 259 1.0 5.0 0.00 0.00 0.00 17 1007.8
20260508061545 84 245 1.0 5.0 0.00 0.00 0.00 17 1007.8
20260508061041 84 240 2.0 5.0 0.00 0.00 0.00 17 1007.9
20260508060540 84 262 2.0 7.0 0.00 0.00 0.00 17 1007.9
20260508060042 85 283 3.0 9.0 0.00 0.00 0.00 17 1007.9
20260508055541 85 263 3.0 9.0 0.00 0.00 0.00 17 1007.9
20260508055038 85 227 1.0 6.0 0.00 0.00 0.00 17 1007.9
20260508054545 85 224 1.0 6.0 0.00 0.00 0.00 17 1007.9
20260508054037 85 237 0.0 7.0 0.00 0.00 0.00 17 1007.9
20260508053539 85 271 3.0 9.0 0.00 0.00 0.00 17 1007.9
20260508053041 85 228 4.0 10.0 0.00 0.00 0.00 17 1007.9
20260508052536 85 262 4.0 12.0 0.00 0.00 0.00 17 1007.9
20260508052035 85 261 3.0 7.0 0.00 0.00 0.00 17 1007.8
20260508051539 86 257 1.0 8.0 0.00 0.00 0.00 17 1007.8
20260508051034 86 254 2.0 9.0 0.00 0.00 0.00 16 1007.8
20260508050535 86 266 4.0 9.0 0.00 0.00 0.00 16 1007.8
20260508050033 86 284 4.0 11.0 0.00 0.00 0.00 15 1007.8
20260508045533 86 278 6.0 9.0 0.00 0.00 0.00 14 1007.8
20260508045033 86 246 3.0 9.0 0.00 0.00 0.00 13 1007.8
20260508044533 86 282 2.0 8.0 0.00 0.00 0.00 12 1007.7
20260508044033 86 281 2.0 5.0 0.00 0.00 0.00 12 1007.7
20260508043529 87 267 2.0 6.0 0.00 0.00 0.00 12 1007.7
20260508043028 87 203 1.0 6.0 0.00 0.00 0.00 11 1007.7
20260508042528 87 225 2.0 9.0 0.00 0.00 0.00 11 1007.6
20260508042027 88 279 4.0 9.0 0.00 0.00 0.00 11 1007.6
20260508041527 87 282 3.0 10.0 0.00 0.00 0.00 12 1007.5
20260508041027 88 294 5.0 10.0 0.00 0.00 0.00 11 1007.5
20260508040527 88 321 4.0 8.0 0.00 0.00 0.00 11 1007.4
20260508040030 88 318 4.0 7.0 0.00 0.00 0.00 11 1007.4
20260508035527 88 275 3.0 8.0 0.00 0.00 0.00 11 1007.3
20260508035026 88 241 3.0 8.0 0.00 0.00 0.00 12 1007.3
20260508034530 88 280 4.0 7.0 0.00 0.00 0.00 11 1007.2
20260508034025 88 283 2.0 7.0 0.00 0.00 0.00 11 1007.1
20260508033525 88 271 2.0 9.0 0.00 0.00 0.00 11 1007.0
20260508033026 88 269 5.0 9.0 0.00 0.00 0.00 11 1007.0
20260508032525 87 310 2.0 7.0 0.00 0.00 0.00 11 1006.9
20260508032025 88 272 3.0 9.0 0.00 0.00 0.00 11 1006.9
20260508031525 88 265 3.0 7.0 0.00 0.00 0.00 11 1006.8
20260508031025 88 281 2.0 8.0 0.00 0.00 0.00 11 1006.7
20260508030525 87 263 4.0 8.0 0.00 0.00 0.00 11 1006.7
20260508030027 88 251 2.0 9.0 0.00 0.00 0.00 11 1006.6
20260508025528 87 281 3.0 8.0 0.00 0.00 0.00 11 1006.5
20260508025024 87 278 2.0 6.0 0.00 0.00 0.00 11 1006.5
20260508024527 87 280 3.0 6.0 0.00 0.00 0.00 11 1006.4
20260508024024 88 286 1.0 4.0 0.00 0.00 0.00 11 1006.3
20260508023523 88 281 2.0 4.0 0.00 0.00 0.00 11 1006.3
20260508023022 88 242 1.0 5.0 0.00 0.00 0.00 11 1006.2
20260508022523 88 233 0.0 6.0 0.00 0.00 0.00 11 1006.2
20260508022020 88 202 1.0 6.0 0.00 0.00 0.00 11 1006.2
20260508021522 89 233 1.0 7.0 0.00 0.00 0.00 11 1006.2
20260508021018 89 248 2.0 7.0 0.00 0.00 0.00 10 1006.2
20260508020517 89 201 3.0 7.0 0.00 0.00 0.00 10 1006.2
20260508020017 90 214 1.0 5.0 0.00 0.00 0.00 10 1006.1
20260508015515 90 234 2.0 5.0 0.00 0.00 0.00 10 1006.1
20260508015015 90 214 2.0 5.0 0.00 0.00 0.00 10 1006.0
20260508014521 91 222 1.0 6.0 0.00 0.00 0.00 10 1006.0
20260508014015 91 219 1.0 7.0 0.00 0.00 0.00 10 1006.0
20260508013514 92 240 1.0 7.0 0.00 0.00 0.00 10 1006.0
20260508013014 92 265 1.0 6.0 0.00 0.00 0.00 9 1005.9
20260508012514 93 261 1.0 6.0 0.00 0.00 0.00 9 1005.9
20260508012015 93 165 1.0 7.0 0.00 0.00 0.00 9 1005.9
20260508011515 93 274 3.0 8.0 0.00 0.00 0.00 9 1005.9
20260508011014 93 336 1.0 8.0 0.00 0.00 0.00 9 1005.8
20260508010514 93 244 2.0 8.0 0.00 0.00 0.00 10 1005.8
20260508010013 93 192 2.0 8.0 0.00 0.00 0.00 10 1005.9
20260508005512 94 243 3.0 8.0 0.00 0.00 0.00 9 1005.9
20260508005013 94 207 2.0 7.0 0.00 0.00 0.00 9 1005.8
20260508004513 95 284 3.0 6.0 0.00 0.00 0.00 9 1005.7
20260508004013 94 156 1.0 7.0 0.00 0.00 0.00 10 1005.7
20260508003514 94 199 2.0 8.0 0.00 0.00 0.00 10 1005.7
20260508003012 95 223 3.0 8.0 0.00 0.00 0.00 10 1005.8
20260508002511 95 220 2.0 11.0 0.00 0.00 0.00 9 1005.8
20260508002011 95 248 3.0 11.0 0.00 0.00 0.00 9 1005.8
20260508001529 95 267 2.0 6.0 0.00 0.00 0.00 10 1005.8
20260508001012 95 169 2.0 8.0 0.00 0.00 0.00 10 1005.8
20260508000511 95 242 1.0 8.0 0.00 0.00 0.00 9 1005.8
20260508000009 95 271 4.0 8.0 0.00 0.00 0.00 9 1005.9
20260507235510 95 286 1.0 12.0 0.00 0.00 0.00 10 1005.9
20260507235007 95 222 5.0 12.0 0.00 0.00 0.00 10 1006.0
20260507234509 95 260 1.0 11.0 0.00 0.00 0.00 10 1006.0
20260507234008 95 296 4.0 11.0 0.00 0.00 0.00 9 1006.1
20260507233507 95 236 1.0 8.0 0.00 0.00 0.00 10 1006.0
20260507233018 95 237 2.0 8.0 0.00 0.00 0.00 9 1006.1
20260507232505 95 320 3.0 9.0 0.00 0.00 0.00 9 1006.2
20260507232006 95 226 1.0 9.0 0.00 0.00 0.00 10 1006.2
20260507231511 95 250 3.0 9.0 0.00 0.00 0.00 10 1006.2
20260507231006 96 273 2.0 9.0 0.00 0.00 0.00 10 1006.1
20260507230506 95 213 3.0 9.0 0.00 0.00 0.00 9 1006.2
20260507230013 96 254 4.0 8.0 0.00 0.00 0.00 9 1006.3
20260507225502 97 257 3.0 8.0 0.00 0.00 0.00 9 1006.4
20260507225004 97 165 3.0 8.0 0.00 0.00 0.00 9 1006.4
20260507224502 97 155 2.0 7.0 0.00 0.00 0.00 9 1006.4
20260507224001 96 153 0.0 6.0 0.00 0.00 0.00 10 1006.5
20260507223602 96 132 1.0 6.0 0.00 0.00 0.00 9 1006.6
20260507223100 95 304 2.0 6.0 0.00 0.00 0.00 9 1006.7
20260507222559 95 248 1.0 7.0 0.00 0.00 0.00 10 1006.7
20260507222058 95 287 2.0 9.0 0.00 0.00 0.00 10 1006.8
20260507221558 95 249 3.0 9.0 0.00 0.00 0.00 11 1006.9
20260507221058 95 271 3.0 8.0 0.00 0.00 0.00 9 1006.9
20260507220557 96 276 2.0 8.0 0.00 0.00 0.00 10 1007.0
20260507220056 96 256 4.0 8.0 0.00 0.00 0.00 10 1007.2
20260507215555 96 231 2.0 11.0 0.00 0.00 0.00 10 1007.3
20260507215055 97 313 2.0 9.0 0.00 0.00 0.00 10 1007.3
20260507214556 96 257 2.0 7.0 0.00 0.00 0.00 10 1007.3
20260507214053 96 95 3.0 7.0 0.00 0.00 0.00 9 1007.4
20260507213551 96 148 3.0 7.0 0.00 0.00 0.00 9 1007.5
20260507213057 96 126 2.0 7.0 0.00 0.00 0.00 9 1007.6
20260507212550 96 217 2.0 7.0 0.00 0.00 0.00 9 1007.7
20260507212048 95 287 2.0 5.0 0.00 0.00 0.00 9 1007.7
20260507211553 94 143 0.0 4.0 0.00 0.00 0.00 10 1007.8
20260507211047 94 159 1.0 5.0 0.00 0.00 0.00 10 1008.0
20260507210546 94 360 2.0 5.0 0.00 0.00 0.00 13 1008.0
20260507210046 95 288 2.0 5.0 0.00 0.00 0.00 11 1008.1
20260507205544 95 67 1.0 5.0 0.00 0.00 0.00 9 1008.2
20260507205044 94 214 1.0 5.0 0.00 0.00 0.00 11 1008.3
20260507204543 94 52 0.0 3.0 0.00 0.00 0.00 11 1008.4
20260507204042 94 338 0.0 8.0 0.00 0.00 0.00 10 1008.4
20260507203542 94 190 1.0 5.0 0.00 0.00 0.00 9 1008.5
20260507203042 94 269 1.0 5.0 0.00 0.00 0.00 9 1008.5
20260507202540 94 250 2.0 5.0 0.00 0.00 0.00 9 1008.5
20260507202038 93 134 1.0 6.0 0.00 0.00 0.00 10 1008.6
20260507201546 93 232 2.0 6.0 0.00 0.00 0.00 10 1008.7
20260507201039 93 166 1.0 6.0 0.00 0.00 0.00 10 1008.8
20260507200536 93 312 1.0 5.0 0.00 0.00 0.00 10 1008.9
20260507200042 93 195 1.0 7.0 0.00 0.00 0.00 10 1008.9
20260507195533 93 243 1.0 6.0 0.00 0.00 0.00 10 1009.0
20260507195033 93 209 2.0 5.0 0.00 0.00 0.00 11 1009.1
20260507194533 93 210 2.0 5.0 0.00 0.00 0.00 10 1009.2
20260507194031 92 244 1.0 7.0 0.00 0.00 0.00 11 1009.2
20260507193530 92 82 2.0 7.0 0.00 0.00 0.00 10 1009.3
20260507193038 92 276 1.0 5.0 0.00 0.00 0.00 10 1009.4
20260507192529 92 260 1.0 5.0 0.00 0.00 0.00 10 1009.5
20260507192027 92 134 1.0 5.0 0.00 0.00 0.00 10 1009.7
20260507191527 92 169 1.0 5.0 0.00 0.00 0.00 11 1009.8
20260507191024 91 126 1.0 6.0 0.00 0.00 0.00 11 1009.9
20260507190524 90 54 1.0 6.0 0.00 0.00 0.00 10 1009.9
20260507190025 90 258 1.0 5.0 0.00 0.00 0.00 10 1010.0